Powrót do katalogu

FENGYUN 1C DEB

AktywnyPO
NORAD 36703·DEBRIS·🇨🇳 China

Wystrzelony May 10, 1999 z Taiyuan Satellite Launch Center

Loading…

Następne Przeloty (najbliższe 24 godziny)

TLE

Starzejące sięSource: Space-Track

Epoka: Sep 10, 2026, 04:31 UTC

1 36703U 99025DZZ 26253.18856902  .00003976  00000-0  16666-2 0  9993
2 36703  97.8167  35.4084 0097717 221.0224 138.3579 14.23894544621310

Śledź FENGYUN 1C DEB w czasie rzeczywistym z AllMySat

Download on the App Store